Regional Weather Roundup
Issued by NWS San Diego, CA

Home | Current Version | Previous Version | Text Only | Print | Product List | Glossary On
Versions: 1 2 3 4 5 6 7 8 9 10 11 12 13 14 15 16 17 18 19 20 21 22 23 24 25 26 27 28 29 30 31 32 33 34 35 36 37 38 39 40 41 42 43 44 45 46 47 48 49 50
665
ASUS46 KSGX 200411
RWRSGX

SAN DIEGO HOURLY WEATHER ROUNDUP
NATIONAL WEATHER SERVICE SAN DIEGO CA
900 PM PDT SAT AUG 19 2017

NOTE: "FAIR" INDICATES FEW OR NO CLOUDS BELOW 12,000 FEET WITH NO
SIGNIFICANT WEATHER AND/OR OBSTRUCTIONS TO VISIBILITY.

CAZ042-043-060-061-PZZ750-775-200500-

GREATER SAN DIEGO AREA

CITY           SKY/WX    TMP DP  RH WIND       PRES   REMARKS
SAN DIEGO AP   MOCLDY    69  60  73 W5        29.95R
NATIONAL CITY    N/A     68  62  80 CALM      29.96R
IMPERIAL BEACH CLOUDY    68  60  75 NW5       29.95R
BROWN FIELD    CLEAR     65  60  84 W3        29.94R
MIRAMAR MCAS   MOCLDY    68  59  73 CALM      29.94R
MONTGOMERY FLD CLOUDY    68  60  75 CALM      29.95R
GILLESPIE FLD  CLEAR     66  59  77 W8        29.95R

$$

NORTH SAN DIEGO COUNTY

CITY           SKY/WX    TMP DP  RH WIND       PRES   REMARKS
CAMP PENDLETON MOCLDY    56  55  97 CALM      29.93R
OCEANSIDE AP   CLOUDY    68  61  78 SW3       29.93R
OCEANSIDE HBR    N/A     66  62  87 W3        29.96R
VISTA            N/A     65  60  83 CALM      29.91R
CARLSBAD       CLOUDY    67  61  81 SW5       29.93R
DEL MAR          N/A     66  61  84 CALM      29.95R
LA JOLLA SCRIP   N/A     66  62  87 CALM      29.93R
FALLBROOK        N/A     64  63  97 CALM      29.95R
ESCONDIDO        N/A     66  60  80 SW2       29.95R
POWAY            N/A     65  59  81 CALM      29.94R

$$

EAST SAN DIEGO COUNTY

CITY           SKY/WX    TMP DP  RH WIND       PRES   REMARKS
RAMONA         CLEAR     61  58  90 W6        29.95R
SANTEE LAKES     N/A     65  60  82 CALM      29.92R
LA MESA          N/A     65  60  82 CALM      29.87R
JAMUL            N/A     63  59  86 CALM      29.93R
DESCANSO N       N/A     62  45  53 NE6       29.82R
CAMPO            N/A     66  56  70 CALM      29.96R

$$

ORANGE COUNTY AND THE LOS ANGELES BASIN

CITY           SKY/WX    TMP DP  RH WIND       PRES   REMARKS
JOHN WAYNE AP  PTCLDY    67  62  84 W6        29.92R
LAKE FOREST FR   N/A     65  58  78 CALM      29.82R
HUNTINGTON BCH   N/A     67  63  88 W6        29.94R
LOS ALAMITOS   FAIR      67  60  77 W6        29.92R
FULLERTON      CLEAR     70  61  73 VRB3      29.91R
LONG BEACH     CLEAR     68  61  78 NW7       29.92R
L.A. AP        PTCLDY    67  61  81 W14       29.93R
L.A. DOWNTOWN  PTCLDY    69  61  75 VRB3      29.92R

$$

THE INLAND EMPIRE

CITY           SKY/WX    TMP DP  RH WIND       PRES   REMARKS
CORONA         CLEAR     70  61  73 W9        29.92R
CHINO          CLEAR     71  60  68 W8        29.93R
ONTARIO        CLEAR     71  59  65 W10       29.92R
SAN BERNARDINO CLEAR     75  57  53 SW8       29.92R HAZE
RIVERSIDE AP   CLEAR     71  61  70 W9        29.92R
MORENO VALLEY    N/A     76  62  62 CALM      28.04R
MARCH ARB      CLEAR     71  59  65 NW5       29.94R
HORSETHIEF CYN   N/A     72  57  60 CALM      29.90R
PERRIS           N/A     72  61  68 S5        29.93R
HEMET EAST       N/A     74  53  47 CALM      29.95R
FRENCH VALLEY  FAIR      66  59  77 S6        29.95R
TEMECULA         N/A     67  61  81 S2        29.97R

$$

SAN BERNARDINO AND RIVERSIDE COUNTY MOUNTAINS

CITY           SKY/WX    TMP DP  RH WIND       PRES   REMARKS
BIG BEAR AP    CLEAR     61  41  48 CALM      30.22R
PINE COVE        N/A     64  43  46 CALM      29.82R

$$

SOUTHERN DESERT INCLUDING THE COACHELLA VALLEY

CITY           SKY/WX    TMP DP  RH WIND       PRES   REMARKS
PALM SPRINGS   CLEAR     94  55  26 NW20G25   29.77R
THOUSAND PALMS   N/A     91  56  30 NW14      29.72R
PALM DESERT      N/A     93  58  30 CALM      31.98S
THERMAL        CLEAR     95  53  24 NW13      29.70R
BLYTHE         CLEAR     99  44  15 SW10      29.74R HX  95
IMPERIAL AP    CLEAR     89  50  26 W7        29.72R
EL CENTRO NAS  CLEAR     92  42  17 W14       29.75R
YUMA AZ        CLEAR     93  54  26 S10       29.75R
MEXICALI       CLEAR     90  63  40 SE7       29.73R

$$

UPPER DESERT

CITY           SKY/WX    TMP DP  RH WIND       PRES   REMARKS
VICTORVILLE AP CLEAR     79  45  29 CALM      29.95R
HESPERIA         N/A     76  56  50 W6        29.90R
PALMDALE       CLEAR     81  43  26 SW5       29.93R
LANCASTER      CLEAR     78  49  35 SW22      29.92R
EDWARDS AFB    CLEAR     80  47  30 SW16      29.88R
DAGGETT        CLEAR     91  47  21 SW14      29.83R
29 PALMS N     CLEAR     89  46  22 SW13      29.92R
NEEDLES        CLEAR    100  43  14 SW8       29.76R HX  96

$$

REGIONAL REPORTS

CITY           SKY/WX    TMP DP  RH WIND       PRES   REMARKS
SANTA BARBARA  CLEAR     63  60  90 W7        29.91R
SANDBERG       CLEAR     72  47  40 S8        30.09R
LAS VEGAS NV   CLEAR     96  38  13 S10       29.83R
PHOENIX AZ     PTCLDY   100  52  19 W5        29.79R HX  97
TIJUANA        CLEAR     64  59  82 W6        29.97R
ENSENADA NW      N/A     66  32  27 CALM      29.92R

$$

OFFSHORE ISLANDS

CITY           SKY/WX    TMP DP  RH WIND       PRES   REMARKS
CATALINA ARPT  CLOUDY    58  58 100 SW9       29.96R FOG
SAN NICOLAS IS CLOUDY   N/A N/A N/A SW7       29.94R

$$

MARINE AND OFFSHORE BUOY REPORTS

STATION/POSITION SKY/WX   TEMP    WIND        PRES    VSBY  SWELL
                          AIR SEA DIR/SP/G                  HT/PER/DIR
                          (F)     (DEG/KT/KT) (MB)    (MI)  (FT/S/D)
TANNER BANKS               64 66  280/ 10/ 12 1013.4R         5/310/11
S CLEMENTE BASIN           66 70  280/  8/ 10 1013.7R         3/200/15
SAN NICOLAS IS.               65                N/A           3/180/15
SO. S. ROSA ISLA           63 65  270/  8/ 10 1013.0R         5/200/15
W. S. BARBARA CH           63 65  280/  8/ 12 1012.5
M. S. BARBARA CH           63 63  270/ 10/ 12 1013.6
S. MONICA BASIN               72  270/  8/ 12 1012.7R         3/170/15
S PEDRO CHANNEL               71                N/A           2/200/15
CMP PENDLETON NS              70                N/A           2/200/15
OCEANSIDE OFFSHR              70                N/A           2/200/15
TORREY PINES OTR              71                N/A           2/210/14
SAN DIEGO BAY                 74              1014.1R
POINT LOMA SOUTH              71                N/A           3/190/15

$$





USA.gov is the U.S. government's official web portal to all federal, state and local government web resources and services.